Jendouba, Tunisia

9:31 PM CET on November 13, 2019 (GMT +0100)
Jendouba

Weather History for DTTN - October, 2019

Change the Weather History Date:

Wednesday, October 23, 2019

  Actual Average Record
Temperature  
Mean Temperature 80 °F -  
Max Temperature 92 °F 71 °F - ()
Min Temperature 68 °F 49 °F - ()
Cooling Degree Days 16    
Growing Degree Days 30 (Base 50)    
Moisture  
Dew Point 61 °F    
Average Humidity 54    
Maximum Humidity 78    
Minimum Humidity 25    
Precipitation  
Precipitation 0.00 in 0.06 in - ()
Sea Level Pressure  
Sea Level Pressure 29.84 in    
Wind  
Wind Speed 8 mph ()    
Max Wind Speed 17 mph    
Max Gust Speed 26 mph    
Visibility 5.7 miles    
Events      
T = Trace of Precipitation, MM = Missing Value Source: Averaged Metar Reports

Daily Weather History Graph

Daily Weather History Graph

Search for Another Location

Airport or City:

Astronomy

Oct. 23, 2019 Rise Set
Actual Time 6:38 AM CET 5:38 PM CET
Civil Twilight 6:12 AM CET 6:05 PM CET
Nautical Twilight 5:42 AM CET 6:35 PM CET
Astronomical Twilight 5:12 AM CET 7:05 PM CET
Moon 12:51 AM CET (10/23) 3:07 PM CET (10/23)
Length of Visible Light 11h 52m
Length of Day
11h 00m
Waning Crescent, 29% of the Moon is Illuminated
Oct 23
Waning Crescent
Oct 28
New
Nov 4
First Quarter
Nov 12
Full
Nov 19
Last Quarter

Hourly Weather History & Observations

Time (CET) Temp. Heat Index Dew Point Humidity Pressure Visibility Wind Dir Wind Speed Gust Speed Precip Events Conditions
12:00 AM 73.4 °F - 59.0 °F 61% 29.92 in 5.0 mi South 10.4 mph - N/A   Partly Cloudy
1:00 AM 69.8 °F - 57.2 °F 64% 29.92 in 5.0 mi Variable 3.5 mph - N/A   Partly Cloudy
4:00 AM 69 °F - 58 °F 60% 29.88 in 5 mi North 2.3 mph - -   Scattered Clouds
4:00 AM 69.8 °F - 59.0 °F 68% 29.89 in 5.0 mi Variable 2.3 mph - N/A   Partly Cloudy
8:00 AM 69.8 °F - 62.6 °F 78% 29.86 in 6.2 mi East 9.2 mph - N/A   Scattered Clouds
9:00 AM 75.2 °F - 62.6 °F 65% 29.89 in 6.2 mi ESE 9.2 mph - N/A   Scattered Clouds
10:00 AM 78.8 °F - 62.6 °F 57% 29.86 in 6.2 mi Variable 4.6 mph - N/A   Scattered Clouds
11:00 AM 84.2 °F 83.8 °F 59.0 °F 42% 29.86 in - ESE 9.2 mph - N/A   Clear
12:00 PM 87.8 °F 87.1 °F 59.0 °F 38% 29.83 in - SE 12.7 mph 24.2 mph N/A   Clear
1:00 PM 89 °F - 60 °F 28% 29.78 in 6 mi ESE 15.0 mph - -   Mostly Cloudy
1:00 PM 89.6 °F 89.5 °F 60.8 °F 38% 29.80 in - ESE 15.0 mph - N/A   Clear
3:00 PM 91.4 °F 89.9 °F 57.2 °F 31% 29.74 in 6.2 mi SSE 17.3 mph - N/A   Partly Cloudy
4:00 PM 91 °F - 59 °F 25% 29.74 in 5 mi SSE 13.8 mph - -   Scattered Clouds
5:00 PM 87.8 °F 87.6 °F 60.8 °F 40% 29.77 in 6.2 mi SSE 15.0 mph - N/A   Partly Cloudy
6:00 PM 86.0 °F 86.1 °F 60.8 °F 43% 29.80 in 6.2 mi SSE 10.4 mph 21.9 mph N/A   Unknown
7:00 PM 83 °F - 61 °F 37% 29.79 in 6 mi SSE 12.7 mph - -  
7:00 PM 82.4 °F 82.9 °F 60.8 °F 48% 29.80 in - SSE 11.5 mph 23.0 mph N/A   Clear
8:00 PM 75.2 °F - 64.4 °F 69% 29.86 in - NW 10.4 mph - N/A   Clear
9:00 PM 71.6 °F - 64.4 °F 78% 29.86 in - NW 12.7 mph - N/A   Clear
10:00 PM 69.8 °F - 62.6 °F 78% 29.89 in - NW 13.8 mph - N/A   Clear
11:00 PM 68.0 °F - 60.8 °F 78% 29.89 in 5.0 mi NW 13.8 mph 26.5 mph N/A   Unknown